Location: Morgantown
(40.9734°N, 80.6323°W)
Time: 20:51:24
(UTC+00:00)

Cosmos 2263 Rocket - Pass Details

Date: 29 October 2020
Orbit: 822 x 850 km, 71.0° (Epoch: 03 December)

Event Time Altitude Azimuth Distance (km) Brightness Sun altitude
Rises 23:43:33 0° 348° (NNW) 3,420 5.5 -16.0°
Reaches altitude 10° 23:46:44 10° 5° (N) 2,483 4.5 -16.6°
Enters shadow 23:50:30 20° 47° (NE) 1,891 3.6 -17.3°
